GW4718 Weather Reports


time (UTC)temp
C
wind
direction
speed
KPH
gust
KPH
rain 1hr
cm
rain 24hr
cm
rain mn
cm
humidity
%
barometer
mb
20260507175221 16 11 1.6 11.3 0.00 0.00 0.00 52 1012.5
20260507174719 16 206 4.8 16.1 0.00 0.00 0.00 51 1012.5
20260507174217 15 53 0.0 11.3 0.00 0.00 0.00 50 1012.7
20260507173715 15 69 8.0 11.3 0.00 0.00 0.00 52 1012.7
20260507173211 15 270 8.0 11.3 0.00 0.00 0.00 56 1012.8
20260507172708 15 156 3.2 17.7 0.00 0.00 0.00 55 1013.0
20260507172204 14 226 9.7 12.9 0.00 0.00 0.00 56 1013.0
20260507171704 13 259 11.3 14.5 0.00 0.00 0.00 60 1013.2
20260507171202 14 69 19.3 24.1 0.00 0.00 0.00 59 1013.0
20260507170659 14 270 6.4 6.4 0.00 0.00 0.00 61 1013.3
20260507170156 13 281 0.0 6.4 0.00 0.00 0.00 60 1013.3
20260507165651 13 46 4.8 11.3 0.00 0.00 0.00 63 1013.4
20260507165148 13 166 6.4 9.7 0.00 0.00 0.00 59 1013.3
20260507164644 13 52 6.4 14.5 0.00 0.00 0.00 60 1013.3
20260507164141 14 203 9.7 12.9 0.00 0.00 0.00 60 1013.6
20260507163638 13 264 3.2 14.5 0.00 0.00 0.00 59 1013.5
20260507163136 13 183 6.4 17.7 0.00 0.00 0.00 60 1013.8
20260507162632 13 105 12.9 14.5 0.00 0.00 0.00 61 1013.8
20260507162128 13 292 8.0 11.3 0.00 0.00 0.00 59 1013.7
20260507161624 13 261 3.2 4.8 0.00 0.00 0.00 65 1013.8
20260507161121 14 186 6.4 11.3 0.00 0.00 0.00 61 1013.9
20260507160618 14 287 1.6 9.7 0.00 0.00 0.00 57 1013.8
20260507160114 14 200 1.6 6.4 0.00 0.00 0.00 62 1014.0
20260507155609 14 163 4.8 4.8 0.00 0.00 0.00 63 1014.0
20260507155107 13 286 1.6 1.6 0.00 0.00 0.00 60 1014.1
20260507154603 13 193 4.8 14.5 0.00 0.00 0.00 64 1014.3
20260507154100 13 214 0.0 3.2 0.00 0.00 0.00 61 1014.1
20260507153557 14 246 4.8 12.9 0.00 0.00 0.00 63 1014.4
20260507153053 13 255 1.6 4.8 0.00 0.00 0.00 62 1014.4
20260507152550 13 312 6.4 6.4 0.00 0.00 0.00 62 1014.4
20260507152046 13 315 6.4 6.4 0.00 0.00 0.00 61 1014.3
20260507151542 13 284 6.4 6.4 0.00 0.00 0.00 63 1014.4
20260507151039 12 120 0.0 6.4 0.00 0.00 0.00 62 1014.4
20260507150536 12 7 1.6 3.2 0.00 0.00 0.00 63 1014.5
20260507150033 12 40 1.6 3.2 0.00 0.00 0.00 64 1014.6
20260507145528 12 22 1.6 4.8 0.00 0.00 0.00 61 1014.4
20260507145026 12 58 1.6 4.8 0.00 0.00 0.00 65 1014.7
20260507144522 12 32 0.0 4.8 0.00 0.00 0.00 64 1014.6
20260507144020 12 51 1.6 3.2 0.00 0.00 0.00 66 1014.6
20260507143517 12 54 3.2 4.8 0.00 0.00 0.00 63 1014.7
20260507143014 12 81 3.2 4.8 0.00 0.00 0.00 59 1015.0
20260507142509 12 246 1.6 4.8 0.00 0.00 0.00 63 1014.8
20260507142007 11 255 3.2 3.2 0.00 0.00 0.00 61 1015.0
20260507141502 11 131 1.6 3.2 0.00 0.00 0.00 67 1015.2
20260507140959 11 102 3.2 4.8 0.00 0.00 0.00 66 1015.4
20260507140456 11 87 0.0 1.6 0.00 0.00 0.00 65 1015.4
20260507135953 11 4 3.2 9.7 0.00 0.00 0.00 67 1015.2
20260507135450 11 323 1.6 6.4 0.00 0.00 0.00 66 1015.4
20260507134947 10 23 1.6 3.2 0.00 0.00 0.00 66 1015.4
20260507134443 10 34 1.6 3.2 0.00 0.00 0.00 66 1015.4
20260507133935 10 129 0.0 0.0 0.00 0.00 0.00 65 1015.5
20260507133431 10 135 0.0 0.0 0.00 0.00 0.00 66 1015.7
20260507132929 10 188 0.0 3.2 0.00 0.00 0.00 69 1015.8
20260507132424 10 233 3.2 4.8 0.00 0.00 0.00 66 1015.6
20260507131921 10 208 1.6 3.2 0.00 0.00 0.00 67 1015.8
20260507131418 10 95 1.6 4.8 0.00 0.00 0.00 65 1015.7
20260507130915 10 56 3.2 6.4 0.00 0.00 0.00 66 1015.7
20260507130412 10 307 0.0 0.0 0.00 0.00 0.00 68 1015.9
20260507125911 10 170 0.0 4.8 0.00 0.00 0.00 67 1015.8
20260507125409 9 71 17.7 20.9 0.00 0.00 0.00 67 1015.9
20260507124906 9 214 4.8 6.4 0.00 0.00 0.00 71 1015.9
20260507124401 10 184 3.2 4.8 0.00 0.00 0.00 74 1015.8
20260507123900 9 127 0.0 3.2 0.00 0.00 0.00 75 1015.7
20260507123357 9 241 1.6 4.8 0.00 0.00 0.00 77 1015.9
20260507122853 10 254 3.2 9.7 0.00 0.00 0.00 76 1015.8
20260507122349 10 82 0.0 3.2 0.00 0.00 0.00 77 1015.5
20260507121845 10 172 4.8 4.8 0.00 0.00 0.00 80 1016.0
20260507121340 10 279 4.8 4.8 0.00 0.00 0.00 79 1015.4
20260507120838 10 195 0.0 3.2 0.00 0.00 0.00 82 1015.7
20260507120334 10 308 3.2 6.4 0.00 0.00 0.00 80 1015.6
20260507115830 10 279 1.6 3.2 0.00 0.00 0.00 80 1015.6
20260507115326 10 231 3.2 4.8 0.00 0.00 0.00 81 1015.5
20260507114822 10 349 4.8 6.4 0.00 0.00 0.00 80 1015.3
20260507114319 10 171 1.6 4.8 0.00 0.00 0.00 80 1015.3
20260507113817 10 35 1.6 1.6 0.00 0.00 0.00 86 1015.2
20260507113313 10 325 0.0 0.0 0.00 0.00 0.00 87 1015.3
20260507112811 10 305 0.0 0.0 0.00 0.00 0.00 87 1015.0
20260507112308 10 249 0.0 0.0 0.00 0.00 0.00 86 1015.2
20260507111806 10 352 0.0 0.0 0.00 0.00 0.00 87 1014.8
20260507111302 10 42 0.0 3.2 0.00 0.00 0.00 86 1015.0
20260507110759 10 10 0.0 1.6 0.00 0.00 0.00 86 1014.8
20260507110255 10 340 1.6 3.2 0.00 0.00 0.00 87 1014.8
20260507105752 10 3 0.0 0.0 0.00 0.00 0.00 86 1014.7
20260507105248 10 0 1.6 1.6 0.00 0.00 0.00 85 1014.6
20260507104746 10 20 0.0 1.6 0.00 0.00 0.00 86 1014.6
20260507104242 10 11 1.6 1.6 0.00 0.00 0.00 85 1014.4
20260507103737 10 0 1.6 3.2 0.00 0.00 0.00 85 1014.6
20260507103234 10 5 0.0 1.6 0.00 0.00 0.00 85 1014.5
20260507102730 10 307 0.0 1.6 0.00 0.00 0.00 85 1014.5
20260507102227 10 342 0.0 0.0 0.00 0.00 0.00 85 1014.6
20260507101723 10 5 0.0 0.0 0.00 0.00 0.00 84 1014.6
20260507101218 10 1 0.0 0.0 0.00 0.00 0.00 85 1014.3
20260507100716 10 42 3.2 4.8 0.00 0.00 0.00 84 1014.5
20260507100214 10 19 0.0 1.6 0.00 0.00 0.00 83 1014.4
20260507095712 10 7 0.0 3.2 0.00 0.00 0.00 84 1014.3
20260507095208 10 20 0.0 0.0 0.00 0.00 0.00 86 1014.3
20260507094705 10 101 0.0 0.0 0.00 0.00 0.00 85 1014.3
20260507094202 10 105 0.0 0.0 0.00 0.00 0.00 87 1014.2
20260507093659 10 102 0.0 0.0 0.00 0.00 0.00 86 1014.2
20260507093158 10 102 0.0 0.0 0.00 0.00 0.00 86 1014.3
20260507092654 10 111 0.0 0.0 0.00 0.00 0.00 86 1014.4
20260507092151 10 91 0.0 1.6 0.00 0.00 0.00 86 1014.3
20260507091647 10 167 0.0 0.0 0.00 0.00 0.00 86 1014.1
20260507091144 10 212 0.0 0.0 0.00 0.00 0.00 85 1014.5
20260507090639 10 262 0.0 0.0 0.00 0.00 0.00 83 1014.1
20260507090137 10 252 0.0 3.2 0.00 0.00 0.00 82 1014.1
20260507085633 10 235 1.6 3.2 0.00 0.00 0.00 82 1014.3
20260507085130 10 236 1.6 4.8 0.00 0.00 0.00 83 1014.3
20260507084627 10 255 0.0 0.0 0.00 0.00 0.00 83 1014.2
20260507084124 10 235 4.8 6.4 0.00 0.00 0.00 83 1014.2
20260507083620 10 292 0.0 3.2 0.00 0.00 0.00 83 1014.0
20260507083117 10 189 0.0 0.0 0.00 0.00 0.00 86 1014.1
20260507082613 10 323 1.6 3.2 0.00 0.00 0.00 83 1014.2
20260507082110 10 197 0.0 3.2 0.00 0.00 0.00 85 1014.3
20260507081606 10 236 0.0 0.0 0.00 0.00 0.00 85 1014.2
20260507081103 10 285 0.0 0.0 0.00 0.00 0.00 85 1014.2
20260507080559 10 28 0.0 0.0 0.00 0.00 0.00 84 1014.3
20260507080056 10 29 0.0 0.0 0.00 0.00 0.00 83 1014.4
20260507075551 10 21 0.0 1.6 0.00 0.00 0.00 83 1014.3
20260507075047 10 40 1.6 1.6 0.00 0.00 0.00 84 1014.3
20260507074544 10 25 0.0 0.0 0.00 0.00 0.00 84 1014.4
20260507074043 10 41 0.0 1.6 0.00 0.00 0.00 84 1014.6
20260507073538 10 62 1.6 3.2 0.00 0.00 0.00 85 1014.6
20260507073035 10 316 0.0 3.2 0.00 0.00 0.00 83 1014.5
20260507072533 10 284 0.0 0.0 0.00 0.00 0.00 83 1014.2
20260507072030 10 44 0.0 0.0 0.00 0.00 0.00 83 1014.3
20260507071527 10 21 0.0 0.0 0.00 0.00 0.00 82 1014.3
20260507071024 11 12 0.0 0.0 0.00 0.00 0.00 82 1014.1
20260507070521 11 340 0.0 0.0 0.00 0.00 0.00 82 1014.1
20260507070018 11 305 1.6 4.8 0.00 0.00 0.00 81 1014.2
20260507065514 11 3 3.2 3.2 0.00 0.00 0.00 81 1014.2
20260507065011 11 17 0.0 3.2 0.00 0.00 0.00 81 1014.3
20260507064509 11 15 3.2 3.2 0.00 0.00 0.00 81 1014.3
20260507064007 11 25 1.6 3.2 0.00 0.00 0.00 81 1014.2
20260507063504 11 21 1.6 4.8 0.00 0.00 0.00 81 1014.3
20260507063001 11 32 1.6 4.8 0.00 0.00 0.00 81 1014.3
20260507062458 11 31 1.6 3.2 0.00 0.00 0.00 81 1014.1
20260507061955 11 109 0.0 3.2 0.00 0.00 0.00 81 1014.3
20260507061453 11 263 0.0 3.2 0.00 0.00 0.00 81 1014.3
20260507060951 11 185 3.2 4.8 0.00 0.00 0.00 81 1014.5
20260507060448 11 135 0.0 1.6 0.00 0.00 0.00 81 1014.4
20260507055944 12 167 1.6 4.8 0.00 0.00 0.00 81 1014.4
20260507055440 12 273 3.2 4.8 0.00 0.00 0.00 80 1014.5
20260507054937 12 228 3.2 6.4 0.00 0.00 0.00 81 1014.6
20260507054433 12 180 1.6 4.8 0.00 0.00 0.00 80 1014.3
20260507053930 12 173 3.2 4.8 0.00 0.00 0.00 80 1014.5
20260507053422 12 199 6.4 11.3 0.00 0.00 0.00 81 1014.2
20260507052921 12 182 1.6 9.7 0.00 0.00 0.00 81 1014.5
20260507052418 12 114 3.2 3.2 0.00 0.00 0.00 84 1014.4
20260507051915 12 43 1.6 3.2 0.00 0.00 0.00 84 1014.4
20260507051413 13 112 4.8 6.4 0.00 0.00 0.00 84 1014.2
20260507050909 12 124 0.0 0.0 0.00 0.00 0.00 85 1014.3
20260507050400 12 59 0.0 0.0 0.00 0.00 0.00 85 1014.2
20260507045857 13 157 0.0 0.0 0.00 0.00 0.00 85 1014.1
20260507045353 13 156 0.0 0.0 0.00 0.00 0.00 86 1014.1
20260507044851 13 165 0.0 0.0 0.00 0.00 0.00 84 1014.1
20260507044347 13 52 0.0 1.6 0.00 0.00 0.00 81 1014.1
20260507043843 13 188 1.6 3.2 0.00 0.00 0.00 81 1013.9
20260507043339 13 181 4.8 4.8 0.00 0.00 0.00 82 1014.0
20260507042830 13 78 3.2 3.2 0.00 0.00 0.00 84 1013.9
20260507042326 13 346 0.0 4.8 0.00 0.00 0.00 83 1014.0
20260507041823 13 248 3.2 6.4 0.00 0.00 0.00 82 1014.2
20260507041319 13 204 3.2 4.8 0.00 0.00 0.00 84 1014.2
20260507040817 13 97 1.6 1.6 0.00 0.00 0.00 88 1013.8
20260507040313 13 254 0.0 1.6 0.00 0.00 0.00 88 1013.7
20260507035809 13 86 0.0 1.6 0.00 0.00 0.00 87 1013.3
20260507035306 13 105 1.6 1.6 0.00 0.00 0.00 86 1012.9
20260507034803 13 130 0.0 0.0 0.00 0.00 0.00 85 1013.5
20260507034259 13 207 0.0 0.0 0.00 0.00 0.00 84 1013.7
20260507033757 13 256 3.2 3.2 0.00 0.00 0.00 83 1014.0
20260507033255 14 276 3.2 3.2 0.00 0.00 0.00 82 1013.4
20260507032751 14 138 3.2 3.2 0.00 0.00 0.00 81 1013.3
20260507032247 13 90 1.6 3.2 0.00 0.00 0.00 83 1014.3
20260507031744 14 260 3.2 9.7 0.00 0.00 0.00 82 1014.5
20260507031241 14 265 4.8 4.8 0.00 0.00 0.00 82 1014.7
20260507030738 13 56 0.0 0.0 0.00 0.00 0.00 83 1014.5
20260507030235 14 201 0.0 3.2 0.00 0.00 0.00 82 1014.3
20260507025732 13 170 4.8 6.4 0.00 0.00 0.00 84 1014.2
20260507025229 13 178 0.0 1.6 0.00 0.00 0.00 86 1014.6
20260507024728 13 182 0.0 0.0 0.00 0.00 0.00 86 1014.3
20260507024224 13 157 0.0 0.0 0.00 0.00 0.00 85 1014.3
20260507023720 14 229 1.6 3.2 0.00 0.00 0.00 84 1014.2
20260507023217 14 249 1.6 6.4 0.00 0.00 0.00 81 1013.5
20260507022715 14 159 0.0 1.6 0.00 0.00 0.00 83 1013.3
20260507022210 14 204 3.2 11.3 0.00 0.00 0.00 81 1013.8
20260507021707 14 238 4.8 11.3 0.00 0.00 0.00 81 1013.8
20260507021202 14 207 1.6 3.2 0.00 0.00 0.00 83 1014.1
20260507020701 14 235 3.2 4.8 0.00 0.00 0.00 85 1014.1
20260507020156 13 228 1.6 3.2 0.00 0.00 0.00 88 1014.2
20260507015655 13 174 0.0 0.0 0.00 0.00 0.00 87 1014.0
20260507015152 13 121 0.0 1.6 0.00 0.00 0.00 89 1013.8
20260507014648 13 182 1.6 3.2 0.00 0.00 0.00 89 1013.6
20260507014144 13 248 4.8 4.8 0.00 0.00 0.00 89 1012.9
20260507013641 13 329 0.0 1.6 0.00 0.00 0.00 88 1012.5
20260507013138 13 105 0.0 0.0 0.00 0.00 0.00 88 1013.0
20260507012636 13 92 0.0 3.2 0.00 0.00 0.00 87 1013.5
20260507012131 13 74 0.0 0.0 0.00 0.00 0.00 88 1013.5
20260507011630 14 47 3.2 3.2 0.00 0.00 0.00 88 1012.9
20260507011125 14 247 1.6 3.2 0.00 0.00 0.00 88 1013.6
20260507010620 14 235 4.8 4.8 0.00 0.00 0.00 86 1013.3
20260507010116 14 244 1.6 11.3 0.00 0.00 0.00 82 1013.2
20260507005614 14 251 0.0 4.8 0.00 0.00 0.00 86 1013.0
20260507005110 14 114 3.2 4.8 0.00 0.00 0.00 85 1012.4
20260507004607 15 155 1.6 1.6 0.00 0.00 0.00 84 1012.7
20260507004104 15 219 3.2 4.8 0.00 0.00 0.00 82 1013.3
20260507003600 15 227 1.6 4.8 0.00 0.00 0.00 79 1012.6
20260507003055 15 220 3.2 4.8 0.00 0.00 0.00 80 1012.7
20260507002552 15 204 3.2 6.4 0.00 0.00 0.00 79 1013.5
20260507002048 15 200 3.2 6.4 0.00 0.00 0.00 79 1013.3
20260507001545 15 252 4.8 6.4 0.00 0.00 0.00 79 1013.0
20260507001043 15 9 0.0 3.2 0.00 0.00 0.00 79 1012.9
20260507000538 15 117 0.0 6.4 0.00 0.00 0.00 79 1013.4
20260507000034 15 113 6.4 9.7 0.00 0.00 0.00 78 1013.3
20260506235531 15 340 3.2 4.8 0.00 0.00 0.00 78 1013.0
20260506235027 15 40 3.2 11.3 0.00 0.00 0.00 78 1012.9
20260506234524 16 184 1.6 11.3 0.00 0.00 0.00 78 1013.0
20260506234016 16 127 9.7 12.9 0.00 0.00 0.00 78 1012.9
20260506233513 16 77 12.9 14.5 0.00 0.00 0.00 77 1012.7
20260506233010 16 106 1.6 4.8 0.00 0.00 0.00 78 1012.8
20260506232506 15 115 9.7 14.5 0.00 0.00 0.00 79 1012.9
20260506232001 16 213 3.2 16.1 0.00 0.00 0.00 79 1013.2
20260506231459 16 137 3.2 11.3 0.00 0.00 0.00 78 1013.4
20260506230957 16 227 1.6 11.3 0.00 0.00 0.00 78 1012.8
20260506230453 16 185 8.0 11.3 0.00 0.00 0.00 78 1012.8
20260506225949 16 210 3.2 9.7 0.00 0.00 0.00 78 1012.7
20260506225446 16 203 4.8 4.8 0.00 0.00 0.00 78 1012.8
20260506224937 16 123 6.4 12.9 0.00 0.00 0.00 77 1012.7
20260506224435 16 253 9.7 14.5 0.00 0.00 0.00 76 1012.4
20260506223931 16 208 6.4 11.3 0.00 0.00 0.00 78 1012.3
20260506223426 17 238 8.0 11.3 0.00 0.00 0.00 77 1012.1
20260506222924 16 167 12.9 25.7 0.00 0.00 0.00 77 1012.7
20260506222420 17 249 3.2 6.4 0.00 0.00 0.00 79 1012.6
20260506221917 16 219 4.8 16.1 0.00 0.00 0.00 81 1012.7
20260506221414 17 261 9.7 16.1 0.00 0.00 0.00 80 1012.4
20260506220912 17 265 6.4 17.7 0.00 0.00 0.00 78 1012.3
20260506220408 17 208 6.4 14.5 0.00 0.00 0.00 78 1012.1
20260506215904 17 246 6.4 14.5 0.00 0.00 0.00 79 1012.2
20260506215400 18 184 1.6 9.7 0.00 0.00 0.00 77 1012.2
20260506214850 18 190 6.4 9.7 0.00 0.00 0.00 77 1011.9
20260506214347 19 180 6.4 14.5 0.00 0.00 0.00 75 1011.9
20260506213846 19 232 4.8 12.9 0.00 0.00 0.00 75 1012.0
20260506213342 19 200 6.4 12.9 0.00 0.00 0.00 73 1011.6
20260506212839 20 171 9.7 12.9 0.00 0.00 0.00 72 1011.6
20260506212336 19 238 3.2 11.3 0.00 0.00 0.00 76 1011.5
20260506211831 20 218 4.8 16.1 0.00 0.00 0.00 75 1011.5
20260506211327 19 182 16.1 20.9 0.00 0.00 0.00 73 1011.2
20260506210824 19 230 3.2 9.7 0.00 0.00 0.00 75 1011.5
20260506210320 20 219 8.0 14.5 0.00 0.00 0.00 74 1011.4
20260506205818 20 242 4.8 12.9 0.00 0.00 0.00 73 1011.4
20260506205313 19 267 6.4 12.9 0.00 0.00 0.00 73 1011.1
20260506204804 19 265 4.8 12.9 0.00 0.00 0.00 75 1011.1
20260506204302 20 196 4.8 20.9 0.00 0.00 0.00 73 1011.2
20260506203759 20 174 9.7 16.1 0.00 0.00 0.00 73 1011.0
20260506203251 20 163 14.5 24.1 0.00 0.00 0.00 72 1010.9
20260506202748 20 159 6.4 11.3 0.00 0.00 0.00 72 1010.8
20260506202245 20 240 3.2 12.9 0.00 0.00 0.00 74 1011.2
20260506201742 20 254 3.2 12.9 0.00 0.00 0.00 73 1010.8
20260506201238 20 235 6.4 14.5 0.00 0.00 0.00 77 1011.1
20260506200736 20 244 9.7 20.9 0.00 0.00 0.00 75 1010.8
20260506200232 20 284 6.4 16.1 0.00 0.00 0.00 74 1011.0
20260506195728 19 133 9.7 16.1 0.00 0.00 0.00 75 1010.9
20260506195224 20 217 11.3 17.7 0.00 0.00 0.00 76 1011.0
20260506194721 20 213 9.7 20.9 0.00 0.00 0.00 72 1011.0
20260506194218 20 183 8.0 17.7 0.00 0.00 0.00 75 1011.0
20260506193716 20 204 8.0 14.5 0.00 0.00 0.00 74 1011.0
20260506193212 20 189 6.4 14.5 0.00 0.00 0.00 75 1010.9
20260506192709 20 197 8.0 16.1 0.00 0.00 0.00 77 1010.9
20260506192206 20 215 4.8 9.7 0.00 0.00 0.00 79 1010.7
20260506191703 19 228 8.0 12.9 0.00 0.00 0.00 82 1011.0
20260506191159 18 126 1.6 9.7 0.00 0.00 0.00 83 1010.9
20260506190656 19 207 6.4 9.7 0.00 0.00 0.00 84 1010.9
20260506190153 19 148 4.8 9.7 0.00 0.00 0.00 80 1010.9
20260506185651 19 232 3.2 11.3 0.00 0.00 0.00 81 1010.8
20260506185146 19 234 4.8 14.5 0.00 0.00 0.00 81 1010.7
20260506184644 19 263 4.8 6.4 0.00 0.00 0.00 80 1010.7
20260506184141 19 221 3.2 14.5 0.00 0.00 0.00 79 1011.0
20260506183638 20 197 4.8 14.5 0.00 0.00 0.00 78 1010.9
20260506183134 20 214 8.0 14.5 0.00 0.00 0.00 81 1011.0
20260506182632 19 175 3.2 12.9 0.00 0.00 0.00 82 1011.0
20260506182128 18 206 8.0 12.9 0.00 0.00 0.00 86 1011.0
20260506181626 18 146 11.3 14.5 0.00 0.00 0.00 82 1011.2
20260506181123 18 200 4.8 11.3 0.00 0.00 0.00 85 1011.2
20260506180620 18 201 6.4 9.7 0.00 0.00 0.00 87 1011.2
20260506180116 17 268 9.7 16.1 0.00 0.00 0.00 84 1011.4
20260506175613 18 288 6.4 11.3 0.00 0.00 0.00 86 1011.4